TimeEDT,TemperatureF,Dew PointF,Humidity,Sea Level PressureIn,VisibilityMPH,Wind Direction,Wind SpeedMPH,Gust SpeedMPH,PrecipitationIn,Events,Conditions,WindDirDegrees,DateUTC
12:56 AM,57.0,39.0,51,29.79,10.0,WSW,10.4,-,N/A,,Clear,240,2014-03-11 04:56:00
1:56 AM,55.9,39.9,55,29.78,10.0,WSW,10.4,-,N/A,,Clear,240,2014-03-11 05:56:00
2:56 AM,54.0,39.9,59,29.78,10.0,SW,6.9,-,N/A,,Clear,220,2014-03-11 06:56:00
3:56 AM,54.0,41.0,62,29.76,10.0,SSW,5.8,-,N/A,,Partly Cloudy,210,2014-03-11 07:56:00
4:56 AM,52.0,41.0,66,29.75,10.0,SSW,6.9,-,N/A,,Partly Cloudy,200,2014-03-11 08:56:00
5:56 AM,52.0,42.1,69,29.74,10.0,SSW,6.9,-,N/A,,Mostly Cloudy,200,2014-03-11 09:56:00
6:56 AM,52.0,42.1,69,29.75,10.0,SSW,5.8,-,N/A,,Mostly Cloudy,200,2014-03-11 10:56:00
7:56 AM,51.1,42.1,71,29.75,10.0,SSW,5.8,-,N/A,,Mostly Cloudy,210,2014-03-11 11:56:00
8:56 AM,52.0,43.0,71,29.75,8.0,South,4.6,-,N/A,,Mostly Cloudy,180,2014-03-11 12:56:00
9:56 AM,54.0,44.1,69,29.75,9.0,SSW,6.9,-,N/A,,Mostly Cloudy,210,2014-03-11 13:56:00
10:56 AM,57.0,44.1,62,29.75,10.0,SW,5.8,-,N/A,,Mostly Cloudy,230,2014-03-11 14:56:00
11:56 AM,64.0,44.1,48,29.73,10.0,WSW,8.1,-,N/A,,Scattered Clouds,250,2014-03-11 15:56:00
12:56 PM,69.1,42.1,38,29.70,10.0,WSW,11.5,19.6,N/A,,Scattered Clouds,240,2014-03-11 16:56:00
1:56 PM,72.0,41.0,33,29.68,10.0,SW,11.5,-,N/A,,Scattered Clouds,220,2014-03-11 17:56:00
2:56 PM,75.0,39.0,27,29.65,10.0,SSW,15.0,19.6,N/A,,Partly Cloudy,210,2014-03-11 18:56:00
3:56 PM,75.9,37.9,25,29.63,10.0,SW,12.7,-,N/A,,Partly Cloudy,230,2014-03-11 19:56:00
4:56 PM,77.0,36.0,23,29.61,10.0,SSW,13.8,-,N/A,,Partly Cloudy,200,2014-03-11 20:56:00
5:56 PM,75.9,35.1,23,29.59,10.0,WSW,11.5,-,N/A,,Partly Cloudy,240,2014-03-11 21:56:00
6:56 PM,73.9,34.0,23,29.59,10.0,SW,10.4,-,N/A,,Scattered Clouds,220,2014-03-11 22:56:00
7:56 PM,71.1,34.0,26,29.60,10.0,South,8.1,-,N/A,,Scattered Clouds,190,2014-03-11 23:56:00
8:56 PM,70.0,37.0,30,29.60,10.0,South,5.8,-,N/A,,Overcast,190,2014-03-12 00:56:00
9:56 PM,66.9,46.0,47,29.59,10.0,South,6.9,-,0.01,,Overcast,170,2014-03-12 01:56:00
10:56 PM,64.9,48.9,56,29.57,10.0,Calm,Calm,-,N/A,,Overcast,0,2014-03-12 02:56:00
11:56 PM,64.0,45.0,50,29.54,10.0,ESE,4.6,-,N/A,,Overcast,110,2014-03-12 03:56:00